Flag for Germany Weather past 2 weeks in Emsdetten, North Rhine-Westphalia, Germany

Now
43 °F

Broken clouds.


Feels Like: 37 °F
Forecast: 31 / 45 °F
Wind: 9 mph from Northwest

Location: Muenster / Osnabrueck

Current Time: Feb 27, 2015 at 12:45:51 PM

Latest Report: Feb 27, 2015 at 12:20 PM


Visibility: N/A

Pressure: 29.95 "Hg

Humidity: 81%

Dew point: 37 °F

Location of EmsdettenLocation

Historic Weather in Emsdetten — Graph

°F

Emsdetten temperature yesterday

Maximum temperature yesterday: 48 °F (at 12:50 PM)
Minimum temperature yesterday: 37 °F (at 7:50 AM)
Average temperature yesterday: 44 °F

Past Weeks' High & Low Weather Summary

 TemperatureHumidityPressure
High52 °F (Feb 14, 2:50 PM)100% (Feb 12, 11:20 AM)30.74 "Hg (Feb 12, 11:20 AM)
Low27 °F (Feb 17, 1:50 AM)61% (Feb 16, 5:20 PM)29.30 "Hg (Feb 21, 6:20 AM)
Average38 °F87%29.96 "Hg
* Reported Feb 12 11:20 AM — Feb 27 11:20 AM, Emsdetten, Weather by CustomWeather, © 2015

Note: Actual official high and low records may vary slightly from our data, if they occured in-between our weather recording intervals... More about our weather records

Advertising

Emsdetten weather history for previous 24 hours

 ConditionsComfort  
Time TempWeatherWind HumidityBarometerVisibility
11:20 AM
Fri, Feb 27
43 °FBroken clouds.10 mph81%29.92 "HgN/A
10:50 AM43 °FBroken clouds.8 mph87%29.92 "HgN/A
10:20 AM41 °FBroken clouds.10 mph93%29.89 "HgN/A
9:50 AM41 °FBroken clouds.10 mph93%29.89 "HgN/A
9:20 AM41 °FBroken clouds.12 mph93%29.89 "HgN/A
8:50 AM41 °FBroken clouds.8 mph93%29.86 "HgN/A
8:20 AM39 °FPartly sunny.7 mph93%29.86 "HgN/A
7:50 AM39 °FLight rain. Broken clouds.9 mph93%29.86 "HgN/A
7:20 AM39 °FDrizzle. Partly sunny.13 mph93%29.83 "HgN/A
6:50 AM41 °FPassing clouds.13 mph93%29.83 "HgN/A
6:20 AM41 °FPartly cloudy.9 mph93%29.80 "Hg5 mi
5:20 AM41 °FPartly cloudy.10 mph100%29.77 "Hg4 mi
4:20 AM43 °FDrizzle. Fog.2 mph100%29.77 "Hg3 mi
3:50 AM43 °FDrizzle. Fog.2 mph100%29.77 "Hg3 mi
3:20 AM43 °FDrizzle. Fog.3 mph100%29.77 "Hg3 mi
2:50 AM43 °FDrizzle. Fog.2 mph100%29.77 "Hg3 mi
2:20 AM43 °FDrizzle. Fog.5 mph100%29.77 "Hg3 mi
1:50 AM43 °FDrizzle. Fog.3 mph100%29.77 "Hg3 mi
1:20 AM43 °FDrizzle. Fog.5 mph100%29.77 "Hg3 mi
12:50 AM43 °FDrizzle. Fog.6 mph100%29.77 "Hg3 mi
12:20 AM43 °FPassing clouds.7 mph100%29.77 "Hg4 mi
11:50 PM
Thu, Feb 26
43 °FDrizzle. Fog.7 mph100%29.80 "Hg3 mi
11:20 PM43 °FDrizzle. Fog.7 mph100%29.80 "Hg3 mi
10:50 PM43 °FLight rain. Passing clouds.8 mph100%29.80 "Hg5 mi
10:20 PM43 °FLight rain. Passing clouds.9 mph93%29.80 "HgN/A
9:50 PM43 °FLight rain. Partly cloudy.9 mph93%29.83 "HgN/A
9:20 PM45 °FLight rain. Passing clouds.10 mph81%29.83 "HgN/A
8:50 PM46 °FPassing clouds.10 mph71%29.83 "HgN/A
8:20 PM46 °FPassing clouds.10 mph71%29.86 "HgN/A
7:50 PM46 °FPassing clouds.9 mph71%29.86 "HgN/A
7:20 PM46 °FLight rain. Passing clouds.9 mph71%29.86 "HgN/A
6:50 PM46 °FPassing clouds.12 mph71%29.86 "HgN/A
6:20 PM48 °FPassing clouds.10 mph66%29.89 "HgN/A
5:50 PM48 °FPartly sunny.9 mph66%29.89 "HgN/A
5:20 PM48 °FSunny.10 mph66%29.89 "Hg10 mi
4:50 PM48 °FSunny.10 mph66%29.89 "Hg10 mi
4:20 PM48 °FBroken clouds.14 mph66%29.92 "HgN/A
3:50 PM48 °FBroken clouds.13 mph66%29.92 "HgN/A
3:20 PM48 °FBroken clouds.14 mph71%29.95 "HgN/A
2:50 PM48 °FPartly sunny.12 mph71%29.95 "HgN/A
2:20 PM48 °FBroken clouds.13 mph71%29.98 "HgN/A
1:50 PM48 °FBroken clouds.14 mph71%29.98 "HgN/A
1:20 PM48 °FPartly sunny.14 mph71%30.01 "HgN/A
12:50 PM48 °FBroken clouds.12 mph71%30.01 "HgN/A
12:20 PM46 °FScattered clouds.13 mph71%30.04 "HgN/A
Weather by CustomWeather, © 2015

See weather overviewHow to use our weather pages